Regional Weather Roundup
Issued by NWS

Home | Current Version | Previous Version | Graphics & Text | Print | Product List | Glossary On
Versions: 1 2 3 4 5 6 7 8 9 10 11 12 13 14 15 16 17 18 19 20 21 22 23 24 25 26 27 28 29 30 31 32 33 34 35 36 37 38 39 40 41 42 43 44 45 46 47 48 49 50
000
ASUS43 KBIS 272110
RWRND

NORTH DAKOTA REGIONAL WEATHER ROUNDUP
NATIONAL WEATHER SERVICE BISMARCK ND
400 PM CDT MON JUL 27 2015

NOTE: "FAIR" INDICATES FEW OR NO CLOUDS BELOW 12,000 FEET WITH NO
SIGNIFICANT WEATHER AND/OR OBSTRUCTIONS TO VISIBILITY.


NDZ001>003-009>011-017-272200-
NORTHWEST NORTH DAKOTA

CITY           SKY/WX    TMP DP  RH WIND       PRES   REMARKS
WILLISTON      PTSUNNY   88  57  34 S10       29.65F
MINOT          SUNNY     90  68  48 E23G31    29.66F HX  94
MINOT AFB      SUNNY     89  70  52 SE22G30   29.66F HX  95
$$

NDZ018>021-031>035-040>046-272200-
SOUTHWEST NORTH DAKOTA

CITY           SKY/WX    TMP DP  RH WIND       PRES   REMARKS
BISMARCK       SUNNY     92  66  42 SE22G32   29.69F HX  94
DICKINSON      MOSUNNY   87  66  49 SE21G28   29.65F
GARRISON         N/A     86  72  62 SE17G26   29.67F HX  92
HETTINGER ARPT MOSUNNY   91  61  36 SE17G29   29.68F HX  91
$$

NDZ004>008-012>016-024-026-027-054-272200-
NORTHEAST NORTH DAKOTA

CITY           SKY/WX    TMP DP  RH WIND       PRES   REMARKS
GRAND FORKS    PTSUNNY   84  71  65 SE15      29.80F
GRND FRKS AFB  PTSUNNY   86  72  62 S15G23    29.81F HX  91
DEVILS LAKE    SUNNY     84  66  54 SE20G26   29.77F
$$

NDZ022-023-025-028>030-036>039-047>053-272200-
SOUTHEAST NORTH DAKOTA

CITY           SKY/WX    TMP DP  RH WIND       PRES   REMARKS
FARGO          PTSUNNY   90  70  51 S17G28    29.81F HX  95
JAMESTOWN      MOSUNNY   87  74  64 SE20      29.77F HX  95
$$



USA.gov is the U.S. government's official web portal to all federal, state and local government web resources and services.